Voltar ao catálogo

COSMOS 374 DEB

AtivoUNKNOWN
NORAD 5076·DEBRIS·🇷🇺 Russia

Lançado Oct 23, 1970 de Baikonur Cosmodrome

Loading…

Próximas Passagens (próximas 24 horas)

TLE

AtualizadoSource: Space-Track

Época: Sep 14, 2026, 00:59 UTC

1 05076U 70089AP  26257.04144720  .00000068  00000-0  77248-4 0  9992
2 05076  62.8042 278.3567 0965151 218.9169 133.8405 12.87512911607131

Acompanhe COSMOS 374 DEB em tempo real com AllMySat

Download on the App Store